Location: Narrabri
(30.3170°S, 149.7830°E)
Time: 07:52:00
(UTC+11:00)

Envisat - Pass Details

Date: 10 October 2017
Orbit: 764 x 766 km, 98.2° (Epoch: 14 December)

Event Time Altitude Azimuth Distance (km) Brightness Sun altitude
Rises 22:17:51 0° 182° (S) 3,259 6.7 -38.3°
Reaches altitude 10° 22:20:26 10° 192° (SSW) 2,326 6.0 -38.8°
Enters shadow 22:22:27 20° 210° (SSW) 1,714 5.3 -39.1°
